STARLINK-1751 (46378 NORAD) Tracking and Keplerian Element Data

This shows tracking and keplerian element data for the satellite.

Feedback or suggestion? Click here.




ElementValue
Catalog46378
NameSTARLINK-1751
Epoch Orbit186
Epoch Day336.91667824
Epoch Year2020
RAAN350.7475
Inclination52.9986
Eccentricity0.0001676
Argument of Perigee31.2398
Mean Anonmoly295.6669
Mean Motion15.6273501
Decay Rate-6.76E-05
L11 46378U 20062BF 20336.91667824 -.00006760 00000-0 -68087-4 0 9999
L22 46378 52.9986 350.7475 0001676 31.2398 295.6669 15.62735010 1864

Live tracking and technical data element details for STARLINK-1751 (NORAD 46378). STARLINK-1751 can be tracked NOW for your location showing map with azimuth and elevation plus other details from your city location.

Track the satellite on the map from your city or location and see movement details for azimuth, elevation, latitude, longitude, range, height, and movement on the map or in text.







IsCatalogInMostPopularTable: catalog: 46378, numindb: 30
Update: records affected: 1



GetName: 46378 STARLINK-1751

Hit Count: updated at: Wed, 02 Dec 2020 18:53:43 GMT